Overview Statistics Trail Chart Weather Telemetry Raw packets
 

This is the latest recevied weather packets stored in our database for station/object KTPA. If no packets are shown the sender has not sent any weather packets the latest 10 day(s).

<< 40 41 42 43 44 45 46 >>
Time Temp. Humidity Pressure Rain* Wind** Luminosity Snow
1788046421 23.89° C 94% 1017.6 hPa - - - -
1788045817 23.89° C 94% 1017.6 hPa - - - -
1788045216 23.89° C 94% 1017.6 hPa - - - -
1788044617 23.89° C 94% 1017.6 hPa - - - -
1788044018 23.89° C 94% 1017.6 hPa - - - -
1788043415 23.89° C 94% 1017.9 hPa - - - -
1788042821 23.89° C 94% 1017.9 hPa - - - -
1788042216 23.89° C 94% 1018.3 hPa - - - -
1788041619 23.89° C 94% 1017.9 hPa - - - -
1788041017 23.89° C 94% 1017.6 hPa - - - -
1788040418 26.67° C 78% 1017.9 hPa - - - -
1788039816 27.78° C 65% 1016.3 hPa - - - -
1788039218 27.78° C 65% 1016.3 hPa - - - -
1788038618 27.78° C 65% 1016.3 hPa - - - -
1788038015 27.78° C 65% 1016.3 hPa - - - -
1788037418 30.56° C 62% 1016.6 hPa - - - -
1788036820 30.56° C 62% 1016.6 hPa - - - -
1788036214 30.56° C 62% 1016.6 hPa - - - -
1788035618 30.56° C 62% 1016.6 hPa - - - -
1788035019 32.78° C 52% 1016.6 hPa - - - -
1788034418 32.78° C 52% 1016.6 hPa - - - -
1788033820 32.78° C 52% 1016.6 hPa - - - -
1788033216 32.78° C 55% 1016.6 hPa - - - -
1788032619 32.78° C 55% 1016.6 hPa - - - -
1788032017 32.78° C 55% 1016.6 hPa - - - -

* Rain since midnight (hover to see other rain measurements)
** Current wind speed in m/s (hover to see current wind gust speed)